Regional Weather Roundup
Issued by NWS

Home | Current Version | Previous Version | Text Only | Print | Product List | Glossary On
Versions: 1 2 3 4 5 6 7 8 9 10 11 12 13 14 15 16 17 18 19 20 21 22 23 24 25 26 27 28 29 30
000
ASUS44 KLIX 191713
RWRLA
LOUISIANA WEATHER ROUNDUP
NATIONAL WEATHER SERVICE NEW ORLEANS LA
1100 AM CST FRI JAN 19 2018

NOTE: "FAIR" INDICATES FEW OR NO CLOUDS BELOW 12,000 FEET WITH NO
      SIGNIFICANT WEATHER AND/OR OBSTRUCTIONS TO VISIBILITY.
      SKY/WX - SKY CONDITION AND SIGNIFICANT WEATHER.
      TMP - AIR TEMPERATURE.    DP   - DEWPOINT TEMPERATURE.
      RH  - RELATIVE HUMIDITY.  PRES - PRESSURE.
      HX  - HEAT INDEX.         WCI  - WIND CHILL INDEX.

*  THESE STATIONS ARE NOT NWS OR FAA STATIONS AND ARE NOT UNDER
   NWS QUALITY CONTROL.

LAZ040-048-061>063-065-066-069-191800-
SOUTHEAST LOUISIANA

CITY           SKY/WX    TMP DP  RH WIND       PRES   REMARKS
N.O. INTL ARPT FAIR      50  28  42 N7        30.39F
N.O. LAKEFRONT FAIR      47  29  49 N7        30.41R
N.O. DOWNTOWN* FAIR      49  23  36 E3        30.41R
RESERVE*       FAIR      52  22  31 E7        30.38F
SLIDELL        FAIR      50  17  27 CALM      30.39F
BATON ROUGE    CLOUDY    46  20  35 E6        30.37F
BOOTHVILLE     FAIR      49  38  65 NE7       30.39S
BELLE CHASSE   PTSUNNY   51  30  44 CALM      30.39R
BOGALUSA*      FAIR      50  18  28 CALM      30.39F
GALLIANO*      FAIR      48  30  48 NE3       30.40R
NEW ROADS*     PTSUNNY   46  28  48 SE9       30.36F
GONZALES*      FAIR      50  17  26 SE6       30.37F
HAMMOND*       FAIR      50  18  27 S3        30.39F
HOUMA*         SUNNY     52  30  43 E8        30.37F
PORT FOURCHON* SUNNY     48  37  66 NE7       30.39R

$$

LAZ041-044-053-054-191800-
SOUTHWEST LOUISIANA

CITY           SKY/WX    TMP DP  RH WIND       PRES   REMARKS
LAKE CHARLES   CLOUDY    46  27  47 E5        30.36F
LAFAYETTE      PTSUNNY   44  24  45 CALM      30.37F
PATTERSON      FAIR      49  27  42 SE5       30.38S
SALT POINT       N/A     51  27  39 VRB7      30.35F
NEW IBERIA     FAIR      47  23  38 SE3       30.38S
CHENAULT AIRPK CLOUDY    45  27  49 E5        30.37F

$$

LAZ027-028-191800-
CENTRAL LOUISIANA

CITY           SKY/WX    TMP DP  RH WIND       PRES   REMARKS
FORT POLK      CLOUDY    44  23  44 S9        30.34F
ALEXANDRIA INT CLOUDY    42  26  53 S6        30.35S
ALEXANDRIA     CLOUDY    44  24  45 S5        30.35F

$$

LAZ001-002-191800-
NORTHWEST LOUISIANA

CITY           SKY/WX    TMP DP  RH WIND       PRES   REMARKS
SHREVEPORT     CLOUDY    46  21  37 S9        30.31S
BARKSDALE AFB  CLOUDY    43  25  49 S9        30.31F
DTN SHREVEPORT CLOUDY    45  22  40 S8        30.31F

$$

LAZ014-016-191800-
NORTHEAST LOUISIANA

CITY           SKY/WX    TMP DP  RH WIND       PRES   REMARKS
MONROE         CLOUDY    42  22  44 S5        30.35F
TALLULAH       CLOUDY    40  24  53 S3        30.37F

$$





USA.gov is the U.S. government's official web portal to all federal, state and local government web resources and services.